Time,TemperatureF,DewpointF,PressureIn,WindDirection,WindDirectionDegrees,WindSpeedMPH,WindSpeedGustMPH,Humidity,HourlyPrecipIn,Conditions,Clouds,dailyrainin,SolarRadiationWatts/m^2,SoftwareType,DateUTC
2013-02-19 00:02:00,38.0,31.0,-100.00,SSW,213,9.0,15.0,76,0.00,,,0.00,0.000000,,2013-02-19 05:02:00,
2013-02-19 00:13:00,38.0,31.0,-100.00,SSW,213,9.0,15.0,76,0.00,,,0.00,0.000000,,2013-02-19 05:13:00,
2013-02-19 00:22:00,38.0,31.0,-100.00,SSW,213,9.0,15.0,76,0.00,,,0.00,0.000000,,2013-02-19 05:22:00,
2013-02-19 00:32:00,38.0,31.0,-100.00,SSW,213,9.0,15.0,76,0.00,,,0.00,0.000000,,2013-02-19 05:32:00,
2013-02-19 00:40:00,39.0,33.0,-100.00,SSW,208,14.0,20.0,78,0.00,,,0.00,0.000000,,2013-02-19 05:40:00,
2013-02-19 01:03:00,39.0,33.0,-100.00,SSW,208,14.0,20.0,78,0.00,,,0.00,0.000000,,2013-02-19 06:03:00,
2013-02-19 01:12:00,39.0,33.0,-100.00,SSW,208,14.0,20.0,78,0.00,,,0.00,0.000000,,2013-02-19 06:12:00,
2013-02-19 01:22:00,39.0,33.0,-100.00,SSW,208,14.0,20.0,78,0.00,,,0.00,0.000000,,2013-02-19 06:22:00,
2013-02-19 01:32:00,39.0,33.0,-100.00,SSW,208,14.0,20.0,78,0.00,,,0.00,0.000000,,2013-02-19 06:32:00,
2013-02-19 01:40:00,39.0,33.0,-100.00,SW,214,12.0,21.0,78,0.00,,,0.00,0.000000,,2013-02-19 06:40:00,
2013-02-19 02:02:00,39.0,33.0,-100.00,SW,214,12.0,21.0,78,0.00,,,0.00,0.000000,,2013-02-19 07:02:00,
2013-02-19 02:12:00,39.0,33.0,-100.00,SW,214,12.0,21.0,78,0.00,,,0.00,0.000000,,2013-02-19 07:12:00,
2013-02-19 02:22:00,39.0,33.0,-100.00,SW,214,12.0,21.0,78,0.00,,,0.00,0.000000,,2013-02-19 07:22:00,
2013-02-19 02:32:00,39.0,33.0,-100.00,SW,214,12.0,21.0,78,0.00,,,0.00,0.000000,,2013-02-19 07:32:00,
2013-02-19 02:40:00,39.0,33.0,-100.00,SSW,207,14.0,19.0,78,0.00,,,0.00,0.000000,,2013-02-19 07:40:00,
2013-02-19 03:02:00,39.0,33.0,-100.00,SSW,207,14.0,19.0,78,0.00,,,0.00,0.000000,,2013-02-19 08:02:00,
2013-02-19 03:11:00,39.0,33.0,-100.00,SSW,207,14.0,19.0,78,0.00,,,0.00,0.000000,,2013-02-19 08:11:00,
2013-02-19 03:22:00,39.0,33.0,-100.00,SSW,207,14.0,19.0,78,0.00,,,0.00,0.000000,,2013-02-19 08:22:00,
2013-02-19 03:32:00,39.0,33.0,-100.00,SSW,207,14.0,19.0,78,0.00,,,0.00,0.000000,,2013-02-19 08:32:00,
2013-02-19 03:40:00,39.0,31.0,-100.00,SSW,213,13.0,20.0,73,0.00,,,0.00,0.000000,,2013-02-19 08:40:00,
2013-02-19 04:02:00,39.0,31.0,-100.00,SSW,213,13.0,20.0,73,0.00,,,0.00,0.000000,,2013-02-19 09:02:00,
2013-02-19 04:11:00,39.0,31.0,-100.00,SSW,213,13.0,20.0,73,0.00,,,0.00,0.000000,,2013-02-19 09:11:00,
2013-02-19 04:22:00,39.0,31.0,-100.00,SSW,213,13.0,20.0,73,0.00,,,0.00,0.000000,,2013-02-19 09:22:00,
2013-02-19 04:32:00,39.0,31.0,-100.00,SSW,213,13.0,20.0,73,0.00,,,0.00,0.000000,,2013-02-19 09:32:00,
2013-02-19 04:40:00,39.0,31.0,-100.00,SSW,213,14.0,21.0,72,0.00,,,0.00,0.000000,,2013-02-19 09:40:00,
2013-02-19 05:02:00,39.0,31.0,-100.00,SSW,213,14.0,21.0,72,0.00,,,0.00,0.000000,,2013-02-19 10:02:00,
2013-02-19 05:11:00,39.0,31.0,-100.00,SSW,213,14.0,21.0,72,0.00,,,0.00,0.000000,,2013-02-19 10:11:00,
2013-02-19 05:22:00,39.0,31.0,-100.00,SSW,213,14.0,21.0,72,0.00,,,0.00,0.000000,,2013-02-19 10:22:00,
2013-02-19 05:32:00,39.0,31.0,-100.00,SSW,213,14.0,21.0,72,0.00,,,0.00,0.000000,,2013-02-19 10:32:00,
2013-02-19 05:40:00,40.0,34.0,-100.00,SSW,208,14.0,21.0,78,0.00,,,0.00,0.000000,,2013-02-19 10:40:00,
2013-02-19 06:01:00,40.0,34.0,-100.00,SSW,208,14.0,21.0,78,0.00,,,0.00,0.000000,,2013-02-19 11:01:00,
2013-02-19 06:11:00,40.0,34.0,-100.00,SSW,208,14.0,21.0,78,0.00,,,0.00,0.000000,,2013-02-19 11:11:00,
2013-02-19 06:22:00,40.0,34.0,-100.00,SSW,208,14.0,21.0,78,0.00,,,0.00,0.000000,,2013-02-19 11:22:00,
2013-02-19 06:32:00,40.0,34.0,-100.00,SSW,208,14.0,21.0,78,0.00,,,0.00,0.000000,,2013-02-19 11:32:00,
2013-02-19 06:40:00,40.0,35.0,-100.00,SSW,202,16.0,21.0,83,0.00,,,0.00,0.000000,,2013-02-19 11:40:00,
2013-02-19 07:02:00,40.0,35.0,-100.00,SSW,202,16.0,21.0,83,0.00,,,0.00,0.000000,,2013-02-19 12:02:00,
2013-02-19 07:12:00,40.0,35.0,-100.00,SSW,202,16.0,21.0,83,0.00,,,0.00,0.000000,,2013-02-19 12:12:00,
2013-02-19 07:22:00,40.0,35.0,-100.00,SSW,202,16.0,21.0,83,0.00,,,0.00,0.000000,,2013-02-19 12:22:00,
2013-02-19 07:32:00,40.0,35.0,-100.00,SSW,202,16.0,21.0,83,0.00,,,0.00,0.000000,,2013-02-19 12:32:00,
2013-02-19 07:40:00,42.0,38.0,-100.00,SSW,197,16.0,21.0,84,0.00,,,0.00,52.000000,,2013-02-19 12:40:00,
2013-02-19 08:02:00,42.0,38.0,-100.00,SSW,197,16.0,21.0,84,0.00,,,0.00,52.000000,,2013-02-19 13:02:00,
2013-02-19 08:11:00,42.0,38.0,-100.00,SSW,197,16.0,21.0,84,0.00,,,0.00,52.000000,,2013-02-19 13:11:00,
2013-02-19 08:22:00,42.0,38.0,-100.00,SSW,197,16.0,21.0,84,0.00,,,0.00,52.000000,,2013-02-19 13:22:00,
2013-02-19 08:32:00,42.0,38.0,-100.00,SSW,197,16.0,21.0,84,0.00,,,0.00,52.000000,,2013-02-19 13:32:00,
2013-02-19 08:40:00,45.0,39.0,-100.00,SSW,202,13.0,20.0,80,0.00,,,0.00,234.000000,,2013-02-19 13:40:00,
2013-02-19 09:02:00,45.0,39.0,-100.00,SSW,202,13.0,20.0,80,0.00,,,0.00,234.000000,,2013-02-19 14:02:00,
2013-02-19 09:12:00,45.0,39.0,-100.00,SSW,202,13.0,20.0,80,0.00,,,0.00,234.000000,,2013-02-19 14:12:00,
2013-02-19 09:22:00,45.0,39.0,-100.00,SSW,202,13.0,20.0,80,0.00,,,0.00,234.000000,,2013-02-19 14:22:00,
2013-02-19 09:33:00,45.0,39.0,-100.00,SSW,202,13.0,20.0,80,0.00,,,0.00,234.000000,,2013-02-19 14:33:00,
2013-02-19 09:40:00,48.0,41.0,-100.00,SSW,210,15.0,22.0,76,0.00,,,0.00,435.000000,,2013-02-19 14:40:00,
2013-02-19 10:02:00,48.0,41.0,-100.00,SSW,210,15.0,22.0,76,0.00,,,0.00,435.000000,,2013-02-19 15:02:00,
2013-02-19 10:11:00,48.0,41.0,-100.00,SSW,210,15.0,22.0,76,0.00,,,0.00,435.000000,,2013-02-19 15:11:00,
2013-02-19 10:22:00,48.0,41.0,-100.00,SSW,210,15.0,22.0,76,0.00,,,0.00,435.000000,,2013-02-19 15:22:00,
2013-02-19 10:32:00,48.0,41.0,-100.00,SSW,210,15.0,22.0,76,0.00,,,0.00,435.000000,,2013-02-19 15:32:00,
2013-02-19 10:40:00,48.0,41.0,-100.00,SSW,213,16.0,23.0,77,0.00,,,0.00,421.000000,,2013-02-19 15:40:00,
2013-02-19 11:02:00,48.0,41.0,-100.00,SSW,213,16.0,23.0,77,0.00,,,0.00,421.000000,,2013-02-19 16:02:00,
2013-02-19 11:11:00,48.0,41.0,-100.00,SSW,213,16.0,23.0,77,0.00,,,0.00,421.000000,,2013-02-19 16:11:00,
2013-02-19 11:22:00,48.0,41.0,-100.00,SSW,213,16.0,23.0,77,0.00,,,0.00,421.000000,,2013-02-19 16:22:00,
2013-02-19 11:32:00,48.0,41.0,-100.00,SSW,213,16.0,23.0,77,0.00,,,0.00,421.000000,,2013-02-19 16:32:00,
2013-02-19 11:40:00,47.0,41.0,-100.00,SSW,209,12.0,24.0,80,0.00,,,-99.99,381.000000,,2013-02-19 16:40:00,
2013-02-19 12:01:00,47.0,41.0,-100.00,SSW,209,12.0,24.0,80,0.00,,,-99.99,381.000000,,2013-02-19 17:01:00,
2013-02-19 12:11:00,47.0,41.0,-100.00,SSW,209,12.0,24.0,80,0.00,,,-99.99,381.000000,,2013-02-19 17:11:00,
2013-02-19 12:21:00,47.0,41.0,-100.00,SSW,209,12.0,24.0,80,0.00,,,-99.99,381.000000,,2013-02-19 17:21:00,
2013-02-19 12:32:00,47.0,41.0,-100.00,SSW,209,12.0,24.0,80,0.00,,,-99.99,381.000000,,2013-02-19 17:32:00,
2013-02-19 12:40:00,46.0,42.0,-100.00,SSW,200,14.0,22.0,85,0.00,,,0.00,220.000000,,2013-02-19 17:40:00,
2013-02-19 13:02:00,46.0,42.0,-100.00,SSW,200,14.0,22.0,85,0.00,,,0.00,220.000000,,2013-02-19 18:02:00,
2013-02-19 13:11:00,46.0,42.0,-100.00,SSW,200,14.0,22.0,85,0.00,,,0.00,220.000000,,2013-02-19 18:11:00,
2013-02-19 13:21:00,46.0,42.0,-100.00,SSW,200,14.0,22.0,85,0.00,,,0.00,220.000000,,2013-02-19 18:21:00,
2013-02-19 13:32:00,46.0,42.0,-100.00,SSW,200,14.0,22.0,85,0.00,,,0.00,220.000000,,2013-02-19 18:32:00,
2013-02-19 13:40:00,46.0,42.0,-100.00,SSW,196,15.0,20.0,86,0.00,,,0.00,128.000000,,2013-02-19 18:40:00,
2013-02-19 14:01:00,46.0,42.0,-100.00,SSW,196,15.0,20.0,86,0.00,,,0.00,128.000000,,2013-02-19 19:01:00,
2013-02-19 14:11:00,46.0,42.0,-100.00,SSW,196,15.0,20.0,86,0.00,,,0.00,128.000000,,2013-02-19 19:11:00,
2013-02-19 14:21:00,46.0,42.0,-100.00,SSW,196,15.0,20.0,86,0.00,,,0.00,128.000000,,2013-02-19 19:21:00,
2013-02-19 14:32:00,46.0,42.0,-100.00,SSW,196,15.0,20.0,86,0.00,,,0.00,128.000000,,2013-02-19 19:32:00,
2013-02-19 14:40:00,47.0,43.0,-100.00,SSW,204,15.0,20.0,86,0.00,,,0.00,167.000000,,2013-02-19 19:40:00,
2013-02-19 15:02:00,47.0,43.0,-100.00,SSW,204,15.0,20.0,86,0.00,,,0.00,167.000000,,2013-02-19 20:02:00,
2013-02-19 15:12:00,47.0,43.0,-100.00,SSW,204,15.0,20.0,86,0.00,,,0.00,167.000000,,2013-02-19 20:12:00,
2013-02-19 15:22:00,47.0,43.0,-100.00,SSW,204,15.0,20.0,86,0.00,,,0.00,167.000000,,2013-02-19 20:22:00,
2013-02-19 15:32:00,47.0,43.0,-100.00,SSW,204,15.0,20.0,86,0.00,,,0.00,167.000000,,2013-02-19 20:32:00,
2013-02-19 15:40:00,48.0,46.0,-100.00,SW,217,12.0,21.0,94,0.03,,,0.03,64.000000,,2013-02-19 20:40:00,
2013-02-19 16:02:00,48.0,46.0,-100.00,SW,217,12.0,21.0,94,0.03,,,0.03,64.000000,,2013-02-19 21:02:00,
2013-02-19 16:11:00,48.0,46.0,-100.00,SW,217,12.0,21.0,94,0.03,,,0.03,64.000000,,2013-02-19 21:11:00,
2013-02-19 16:21:00,48.0,46.0,-100.00,SW,217,12.0,21.0,94,0.03,,,0.03,64.000000,,2013-02-19 21:21:00,
2013-02-19 16:32:00,48.0,46.0,-100.00,SW,217,12.0,21.0,94,0.03,,,0.03,64.000000,,2013-02-19 21:32:00,
2013-02-19 16:40:00,44.0,43.0,-100.00,SSW,197,11.0,19.0,96,0.01,,,0.04,42.000000,,2013-02-19 21:40:00,
2013-02-19 17:02:00,44.0,43.0,-100.00,SSW,197,11.0,19.0,96,0.01,,,0.04,42.000000,,2013-02-19 22:02:00,
2013-02-19 17:11:00,44.0,43.0,-100.00,SSW,197,11.0,19.0,96,0.01,,,0.04,42.000000,,2013-02-19 22:11:00,
2013-02-19 17:22:00,44.0,43.0,-100.00,SSW,197,11.0,19.0,96,0.01,,,0.04,42.000000,,2013-02-19 22:22:00,
2013-02-19 17:32:00,44.0,43.0,-100.00,SSW,197,11.0,19.0,96,0.01,,,0.04,42.000000,,2013-02-19 22:32:00,
2013-02-19 17:40:00,45.0,44.0,-100.00,SSW,209,12.0,18.0,97,0.02,,,0.06,21.000000,,2013-02-19 22:40:00,
2013-02-19 18:01:00,45.0,44.0,-100.00,SSW,209,12.0,18.0,97,0.02,,,0.06,21.000000,,2013-02-19 23:01:00,
2013-02-19 18:11:00,45.0,44.0,-100.00,SSW,209,12.0,18.0,97,0.02,,,0.06,21.000000,,2013-02-19 23:11:00,
2013-02-19 18:21:00,45.0,44.0,-100.00,SSW,209,12.0,18.0,97,0.02,,,0.06,21.000000,,2013-02-19 23:21:00,
2013-02-19 18:32:00,45.0,44.0,-100.00,SSW,209,12.0,18.0,97,0.02,,,0.06,21.000000,,2013-02-19 23:32:00,
2013-02-19 18:40:00,48.0,47.0,-100.00,SW,225,10.0,23.0,98,0.00,,,0.06,0.000000,,2013-02-19 23:40:00,
2013-02-19 19:02:00,48.0,47.0,-100.00,SW,225,10.0,23.0,98,0.00,,,0.06,0.000000,,2013-02-20 00:02:00,
2013-02-19 19:11:00,48.0,47.0,-100.00,SW,225,10.0,23.0,98,0.00,,,0.06,0.000000,,2013-02-20 00:11:00,
2013-02-19 19:22:00,48.0,47.0,-100.00,SW,225,10.0,23.0,98,0.00,,,0.06,0.000000,,2013-02-20 00:22:00,
2013-02-19 19:32:00,48.0,47.0,-100.00,SW,225,10.0,23.0,98,0.00,,,0.06,0.000000,,2013-02-20 00:32:00,
2013-02-19 19:40:00,47.0,46.0,-100.00,WSW,244,10.0,21.0,98,0.09,,,0.15,0.000000,,2013-02-20 00:40:00,
2013-02-19 20:02:00,47.0,46.0,-100.00,WSW,244,10.0,21.0,98,0.09,,,0.15,0.000000,,2013-02-20 01:02:00,
2013-02-19 20:11:00,47.0,46.0,-100.00,WSW,244,10.0,21.0,98,0.09,,,0.15,0.000000,,2013-02-20 01:11:00,
2013-02-19 20:22:00,47.0,46.0,-100.00,WSW,244,10.0,21.0,98,0.09,,,0.15,0.000000,,2013-02-20 01:22:00,
2013-02-19 20:32:00,47.0,46.0,-100.00,WSW,244,10.0,21.0,98,0.09,,,0.15,0.000000,,2013-02-20 01:32:00,
2013-02-19 20:40:00,47.0,46.0,-100.00,WSW,254,9.0,18.0,96,0.01,,,0.16,0.000000,,2013-02-20 01:40:00,
2013-02-19 21:02:00,47.0,46.0,-100.00,WSW,254,9.0,18.0,96,0.01,,,0.16,0.000000,,2013-02-20 02:02:00,
2013-02-19 21:11:00,47.0,46.0,-100.00,WSW,254,9.0,18.0,96,0.01,,,0.16,0.000000,,2013-02-20 02:11:00,
2013-02-19 21:22:00,47.0,46.0,-100.00,WSW,254,9.0,18.0,96,0.01,,,0.16,0.000000,,2013-02-20 02:22:00,
2013-02-19 21:32:00,47.0,46.0,-100.00,WSW,254,9.0,18.0,96,0.01,,,0.16,0.000000,,2013-02-20 02:32:00,
2013-02-19 21:40:00,46.0,44.0,-100.00,West,269,6.0,17.0,93,0.00,,,0.16,0.000000,,2013-02-20 02:40:00,
2013-02-19 22:02:00,46.0,44.0,-100.00,West,269,6.0,17.0,93,0.00,,,0.16,0.000000,,2013-02-20 03:02:00,
2013-02-19 22:12:00,46.0,44.0,-100.00,West,269,6.0,17.0,93,0.00,,,0.16,0.000000,,2013-02-20 03:12:00,
2013-02-19 22:22:00,46.0,44.0,-100.00,West,269,6.0,17.0,93,0.00,,,0.16,0.000000,,2013-02-20 03:22:00,
2013-02-19 22:32:00,46.0,44.0,-100.00,West,269,6.0,17.0,93,0.00,,,0.16,0.000000,,2013-02-20 03:32:00,
2013-02-19 22:40:00,44.0,42.0,-100.00,WNW,284,6.0,15.0,91,0.00,,,0.16,0.000000,,2013-02-20 03:40:00,
2013-02-19 23:02:00,44.0,42.0,-100.00,WNW,284,6.0,15.0,91,0.00,,,0.16,0.000000,,2013-02-20 04:02:00,
2013-02-19 23:11:00,44.0,42.0,-100.00,WNW,284,6.0,15.0,91,0.00,,,0.16,0.000000,,2013-02-20 04:11:00,
2013-02-19 23:22:00,44.0,42.0,-100.00,WNW,284,6.0,15.0,91,0.00,,,0.16,0.000000,,2013-02-20 04:22:00,
2013-02-19 23:32:00,44.0,42.0,-100.00,WNW,284,6.0,15.0,91,0.00,,,0.16,0.000000,,2013-02-20 04:32:00,
2013-02-19 23:40:00,43.0,40.0,-100.00,WNW,283,6.0,15.0,89,0.00,,,0.16,0.000000,,2013-02-20 04:40:00,